Flag for Germany Weather past 2 weeks in Zweibrücken, Rhineland-Palatinate, Germany

54 °F

Partly sunny.

Feels Like: 53 °F
Forecast: 47 / 59 °F
Wind: 5 mph from Northeast

Location: Saarbruecken / Ensheim

Current Time: Oct 9, 2015 at 7:43:14 PM

Latest Report: Oct 9, 2015 at 7:20 PM

Visibility: N/A

Pressure: 30.09 "Hg

Humidity: 82%

Dew point: 48 °F

Location of ZweibrückenLocation

Historic Weather in Zweibrücken — Graph


Zweibrücken temperature yesterday

Maximum temperature yesterday: 55 °F (at 12:20 PM)
Minimum temperature yesterday: 46 °F (at 1:50 AM)
Average temperature yesterday: 51 °F

Past Weeks' High & Low Weather Summary

High68 °F (Oct 3, 4:20 PM)100% (Oct 6, 1:20 AM)30.54 "Hg (Oct 6, 1:20 AM)
Low43 °F (Oct 1, 7:50 AM)37% (Sep 29, 3:20 PM)29.68 "Hg (Oct 6, 8:20 AM)
Average54 °F74%30.16 "Hg
* Reported Sep 24 6:20 PM — Oct 9 6:20 PM, Zweibrücken, Weather by CustomWeather, © 2015

Note: Actual official high and low records may vary slightly from our data, if they occured in-between our weather recording intervals... More about our weather records


Zweibrücken weather history for previous 24 hours

Time TempWeatherWind HumidityBarometerVisibility
6:20 PM
Fri, Oct 9
57 °FScattered clouds.6 mph72%30.09 "HgN/A
5:50 PM57 °FScattered clouds.6 mph72%30.09 "HgN/A
5:20 PM57 °FBroken clouds.7 mph72%30.09 "HgN/A
4:20 PM59 °FScattered clouds.6 mph63%30.09 "HgN/A
3:50 PM59 °FScattered clouds.6 mph63%30.09 "HgN/A
3:20 PM59 °FScattered clouds.6 mph68%30.09 "HgN/A
2:50 PM57 °FScattered clouds.7 mph67%30.12 "HgN/A
2:20 PM55 °FScattered clouds.7 mph72%30.12 "HgN/A
1:50 PM55 °FScattered clouds.8 mph77%30.12 "HgN/A
1:20 PM54 °FPartly sunny.8 mph82%30.15 "HgN/A
12:50 PM54 °FPartly sunny.7 mph82%30.15 "HgN/A
12:20 PM54 °FPartly sunny.9 mph82%30.15 "HgN/A
11:50 AM52 °FPartly sunny.9 mph88%30.15 "HgN/A
11:20 AM50 °FPartly sunny.7 mph100%30.15 "Hg5 mi
10:50 AM50 °FFog.6 mph94%30.15 "Hg3 mi
10:20 AM48 °FFog.6 mph94%30.15 "Hg1 mi
9:50 AM46 °FFog.6 mph100%30.15 "Hg1 mi
9:20 AM46 °FFog.5 mph100%30.15 "Hg1 mi
8:50 AM46 °FSleet. Fog.1 mph93%30.15 "Hg3 mi
8:20 AM48 °FFog.2 mph94%30.12 "Hg3 mi
7:50 AM46 °FFog.5 mph100%30.12 "Hg3 mi
7:20 AM48 °FClear.3 mph94%30.12 "Hg4 mi
6:50 AM46 °FClear.5 mph93%30.12 "Hg10 mi
6:20 AM48 °FClear.2 mph94%30.12 "Hg10 mi
5:50 AM48 °FClear.1 mph94%30.12 "Hg10 mi
5:20 AM48 °FClear.1 mph94%30.12 "Hg10 mi
4:50 AM48 °FClear.1 mph94%30.15 "Hg10 mi
4:20 AM48 °FClear.1 mph94%30.15 "Hg10 mi
3:50 AM50 °FClear.2 mph88%30.15 "Hg10 mi
3:20 AM48 °FClear.2 mph94%30.15 "Hg10 mi
2:50 AM50 °FClear.1 mph88%30.15 "Hg10 mi
2:20 AM50 °FClear.1 mph94%30.15 "Hg10 mi
1:50 AM50 °FCool.2 mph94%30.15 "Hg3 mi
1:20 AM50 °FCool.2 mph94%30.15 "Hg3 mi
12:50 AM50 °FClear.2 mph94%30.15 "Hg10 mi
12:20 AM50 °FClear.3 mph94%30.18 "Hg10 mi
11:20 PM
Thu, Oct 8
50 °FClear.2 mph94%30.18 "Hg10 mi
10:50 PM50 °FClear.2 mph94%30.18 "Hg10 mi
10:20 PM50 °FPassing clouds.3 mph94%30.18 "HgN/A
9:50 PM50 °FClear.1 mph94%30.15 "Hg10 mi
9:20 PM50 °FClear.1 mph88%30.15 "Hg10 mi
8:50 PM52 °FClear.1 mph82%30.15 "Hg10 mi
8:20 PM52 °FPassing clouds.1 mph88%30.15 "HgN/A
7:50 PM52 °FPartly sunny.2 mph88%30.15 "HgN/A
7:20 PM52 °FPartly sunny.2 mph82%30.15 "HgN/A
Weather by CustomWeather, © 2015

See weather overviewHow to use our weather pages